UAE2P OMDB-LIPE

Flight info

Callsign UAE2P
Flight time N/A
Altitude 38000
Route ANVIX R401 GIDIS G783 RIGIL/N0487F400 M628 PEKEM DCT MEDPO DCT ITRUX Y511 PMA Z712 WEJ L677 CVO L617 TANSA UL613 XANIS DCT DIMIS DCT KOFER DCT ORAKA DCT XAMIT DCT ERITU DCT SORUG DCT ASDOR DCT LIKNO DCT PIDEP DCT BAGNO M726 PELEG
Aircraft A359/H-SDE2E3GHIJ3J4J5LM1ORWXY/LB1D1

Departure

Time N/A
Airport Dubai International Airport (OMDB)

Arrival

Time 2026-05-06 02:54
Airport Bologna Guglielmo Marconi Airport (LIPE)
Time Latitude Longitude Altitude Speed Heading
2026-05-06 00:36 34.71944 26.14324 40063 ft 436 kts 320°
2026-05-06 00:36 34.76732 26.09787 40067 ft 436 kts 320°
2026-05-06 00:37 34.81521 26.05243 40066 ft 436 kts 320°
2026-05-06 00:37 34.86297 26.00704 40072 ft 435 kts 320°
2026-05-06 00:38 34.91068 25.96164 40072 ft 435 kts 320°
2026-05-06 00:38 34.95837 25.91618 40069 ft 435 kts 320°
2026-05-06 00:39 35.00603 25.87068 40072 ft 435 kts 320°
2026-05-06 00:39 35.05335 25.82544 40070 ft 435 kts 320°
2026-05-06 00:40 35.10100 25.77982 40075 ft 434 kts 320°
2026-05-06 00:40 35.14846 25.73422 40075 ft 434 kts 320°
2026-05-06 00:41 35.19578 25.68843 40074 ft 434 kts 320°
2026-05-06 00:41 35.24315 25.64270 40076 ft 434 kts 320°
2026-05-06 00:42 35.29057 25.59702 40078 ft 433 kts 320°
2026-05-06 00:42 35.33796 25.55133 40077 ft 434 kts 320°
2026-05-06 00:43 35.38533 25.50557 40082 ft 434 kts 320°
2026-05-06 00:43 35.43265 25.45978 40078 ft 433 kts 320°
2026-05-06 00:44 35.47999 25.41391 40080 ft 433 kts 320°
2026-05-06 00:44 35.52727 25.36802 40073 ft 433 kts 320°
2026-05-06 00:45 35.57423 25.32237 40067 ft 433 kts 320°
2026-05-06 00:45 35.62178 25.27608 40069 ft 433 kts 320°
2026-05-06 00:46 35.66865 25.23037 40072 ft 433 kts 320°
2026-05-06 00:46 35.71585 25.18428 40069 ft 433 kts 320°
2026-05-06 00:47 35.76300 25.13816 40065 ft 433 kts 320°
2026-05-06 00:47 35.81016 25.09197 40067 ft 433 kts 320°
2026-05-06 00:48 35.85727 25.04574 40067 ft 433 kts 320°
2026-05-06 00:48 35.90440 24.99942 40062 ft 433 kts 320°
2026-05-06 00:49 35.95151 24.95306 40079 ft 433 kts 320°
2026-05-06 00:49 35.99857 24.90667 40064 ft 433 kts 320°
2026-05-06 00:50 36.04558 24.86025 40065 ft 433 kts 320°
2026-05-06 00:50 36.09259 24.81382 40061 ft 433 kts 320°
2026-05-06 00:51 36.13959 24.76721 40058 ft 433 kts 320°
2026-05-06 00:51 36.18620 24.72091 40061 ft 433 kts 320°
2026-05-06 00:52 36.23314 24.67423 40060 ft 433 kts 320°
2026-05-06 00:52 36.28006 24.62750 40063 ft 433 kts 320°
2026-05-06 00:53 36.32700 24.58069 40059 ft 433 kts 320°
2026-05-06 00:53 36.37391 24.53384 40060 ft 433 kts 320°
2026-05-06 00:54 36.42081 24.48691 40053 ft 433 kts 320°
2026-05-06 00:54 36.46771 24.43991 40052 ft 433 kts 320°
2026-05-06 00:55 36.51457 24.39284 40052 ft 433 kts 320°
2026-05-06 00:55 36.56141 24.34577 40053 ft 432 kts 320°
2026-05-06 00:56 36.60813 24.29873 40052 ft 432 kts 320°
2026-05-06 00:56 36.65479 24.25167 40050 ft 432 kts 320°
2026-05-06 00:57 36.70148 24.20451 40047 ft 432 kts 320°
2026-05-06 00:57 36.74811 24.15732 40047 ft 432 kts 320°
2026-05-06 00:58 36.79471 24.11010 40047 ft 432 kts 320°
2026-05-06 00:58 36.84132 24.06278 40050 ft 432 kts 320°
2026-05-06 00:59 36.88796 24.01536 40050 ft 432 kts 320°
2026-05-06 00:59 36.93457 23.96794 40049 ft 432 kts 320°
2026-05-06 01:00 36.98083 23.92081 40048 ft 432 kts 320°
2026-05-06 01:00 37.02771 23.87295 40050 ft 432 kts 320°
2026-05-06 01:01 37.07423 23.82540 40049 ft 432 kts 320°
2026-05-06 01:01 37.12042 23.77810 40051 ft 432 kts 320°
2026-05-06 01:02 37.16700 23.73034 40045 ft 432 kts 319°
2026-05-06 01:02 37.21342 23.68266 40048 ft 431 kts 319°
2026-05-06 01:03 37.25983 23.63491 40047 ft 431 kts 319°
2026-05-06 01:03 37.30622 23.58709 40049 ft 431 kts 319°
2026-05-06 01:04 37.35256 23.53927 40049 ft 431 kts 319°
2026-05-06 01:04 37.39889 23.49135 40061 ft 431 kts 319°
2026-05-06 01:05 37.44527 23.44332 40056 ft 432 kts 319°
2026-05-06 01:05 37.49165 23.39520 40052 ft 432 kts 319°
2026-05-06 01:06 37.53799 23.34706 40056 ft 432 kts 319°
2026-05-06 01:06 37.58433 23.29883 40060 ft 432 kts 319°
2026-05-06 01:07 37.63063 23.25055 40060 ft 432 kts 319°
2026-05-06 01:07 37.67691 23.20222 40077 ft 432 kts 319°
2026-05-06 01:08 37.72331 23.15367 40073 ft 434 kts 319°
2026-05-06 01:08 37.76978 23.10498 40067 ft 434 kts 319°
2026-05-06 01:09 37.81623 23.05623 40061 ft 434 kts 319°
2026-05-06 01:09 37.86233 23.00777 40070 ft 434 kts 319°
2026-05-06 01:10 37.90867 22.95896 40072 ft 434 kts 319°
2026-05-06 01:10 37.95472 22.90964 40082 ft 433 kts 317°
2026-05-06 01:11 37.99920 22.85769 40084 ft 436 kts 316°
2026-05-06 01:11 38.04352 22.80507 40086 ft 436 kts 316°
2026-05-06 01:12 38.08804 22.75274 40078 ft 436 kts 316°
2026-05-06 01:12 38.13273 22.70058 40073 ft 436 kts 316°
2026-05-06 01:13 38.17749 22.64861 40077 ft 436 kts 316°
2026-05-06 01:13 38.22228 22.59652 40074 ft 436 kts 316°
2026-05-06 01:14 38.28946 22.51815 40077 ft 438 kts 316°
2026-05-06 01:14 38.33434 22.46567 40077 ft 438 kts 316°
2026-05-06 01:15 38.37925 22.41307 40082 ft 439 kts 316°
2026-05-06 01:15 38.42418 22.36035 40084 ft 439 kts 316°
2026-05-06 01:16 38.46881 22.30789 40096 ft 439 kts 316°
2026-05-06 01:16 38.51368 22.25505 40096 ft 439 kts 316°
2026-05-06 01:17 38.55856 22.20212 40092 ft 439 kts 316°
2026-05-06 01:17 38.60421 22.15023 40110 ft 440 kts 319°
2026-05-06 01:18 38.65226 22.10152 40105 ft 441 kts 320°
2026-05-06 01:18 38.70060 22.05288 40112 ft 443 kts 320°
2026-05-06 01:19 38.74866 22.00357 40110 ft 442 kts 320°
2026-05-06 01:19 38.79649 21.95393 40114 ft 442 kts 320°
2026-05-06 01:20 38.84427 21.90416 40125 ft 443 kts 320°
2026-05-06 01:20 38.89206 21.85432 40106 ft 443 kts 320°
2026-05-06 01:21 38.93984 21.80444 40104 ft 443 kts 320°
2026-05-06 01:21 38.98763 21.75446 40118 ft 444 kts 319°
2026-05-06 01:22 39.03551 21.70430 40112 ft 444 kts 320°
2026-05-06 01:22 39.08336 21.65406 40126 ft 444 kts 320°
2026-05-06 01:23 39.12303 21.61233 40096 ft 442 kts 320°
2026-05-06 01:23 39.17066 21.56216 40100 ft 442 kts 320°
2026-05-06 01:24 39.21822 21.51199 40105 ft 442 kts 320°
2026-05-06 01:24 39.26581 21.46171 40118 ft 442 kts 320°
2026-05-06 01:25 39.31334 21.41139 40122 ft 442 kts 320°
2026-05-06 01:25 39.36080 21.36100 40118 ft 440 kts 320°
2026-05-06 01:26 39.40802 21.31084 40115 ft 439 kts 320°
2026-05-06 01:26 39.45512 21.26071 40124 ft 438 kts 319°
2026-05-06 01:27 39.50213 21.21056 40128 ft 438 kts 320°
2026-05-06 01:27 39.54885 21.16064 40125 ft 438 kts 320°
2026-05-06 01:28 39.59590 21.11028 40145 ft 439 kts 320°
2026-05-06 01:28 39.64304 21.05972 40129 ft 440 kts 320°
2026-05-06 01:29 39.69020 21.00906 40129 ft 440 kts 320°
2026-05-06 01:29 39.73728 20.95838 40129 ft 440 kts 319°
2026-05-06 01:30 39.78441 20.90757 40130 ft 440 kts 319°
2026-05-06 01:30 39.83140 20.85681 40130 ft 439 kts 319°
2026-05-06 01:31 39.87841 20.80592 40127 ft 440 kts 319°
2026-05-06 01:31 39.92546 20.75491 40126 ft 441 kts 319°
2026-05-06 01:32 39.97265 20.70364 40128 ft 441 kts 319°
2026-05-06 01:32 40.01980 20.65234 40129 ft 442 kts 319°
2026-05-06 01:33 40.06694 20.60093 40125 ft 442 kts 319°
2026-05-06 01:33 40.11488 20.55056 40122 ft 442 kts 321°
2026-05-06 01:34 40.16387 20.50205 40124 ft 442 kts 322°
2026-05-06 01:34 40.21287 20.45340 40118 ft 443 kts 321°
2026-05-06 01:35 40.26186 20.40414 40120 ft 444 kts 321°
2026-05-06 01:35 40.31079 20.35461 40123 ft 445 kts 321°
2026-05-06 01:36 40.35969 20.30500 40115 ft 445 kts 321°
2026-05-06 01:36 40.40824 20.25566 40117 ft 444 kts 321°
2026-05-06 01:37 40.45710 20.20592 40112 ft 444 kts 321°
2026-05-06 01:37 40.50593 20.15613 40107 ft 444 kts 321°
2026-05-06 01:38 40.55479 20.10622 40105 ft 445 kts 321°
2026-05-06 01:38 40.60376 20.05609 40100 ft 446 kts 321°
2026-05-06 01:39 40.65274 20.00586 40101 ft 447 kts 321°
2026-05-06 01:39 40.70175 19.95550 40097 ft 447 kts 321°
2026-05-06 01:40 40.75077 19.90504 40088 ft 447 kts 320°
2026-05-06 01:40 40.79982 19.85445 40088 ft 447 kts 320°
2026-05-06 01:41 40.84881 19.80382 40092 ft 447 kts 320°
2026-05-06 01:41 40.89786 19.75302 40093 ft 448 kts 320°
2026-05-06 01:42 40.94699 19.70205 40086 ft 450 kts 320°
2026-05-06 01:42 40.99621 19.65089 40083 ft 450 kts 320°
2026-05-06 01:43 41.04536 19.59970 40083 ft 450 kts 320°
2026-05-06 01:43 41.09451 19.54842 40085 ft 450 kts 320°
2026-05-06 01:44 41.14365 19.49704 40080 ft 450 kts 320°
2026-05-06 01:44 41.19274 19.44560 40081 ft 450 kts 320°
2026-05-06 01:45 41.24179 19.39412 40083 ft 450 kts 320°
2026-05-06 01:45 41.29086 19.34251 40078 ft 450 kts 320°
2026-05-06 01:46 41.33990 19.29081 40078 ft 450 kts 320°
2026-05-06 01:46 41.38893 19.23903 40086 ft 450 kts 320°
2026-05-06 01:47 41.43795 19.18718 40080 ft 450 kts 320°
2026-05-06 01:47 41.48664 19.13556 40077 ft 450 kts 320°
2026-05-06 01:48 41.53566 19.08350 40074 ft 450 kts 319°
2026-05-06 01:48 41.58467 19.03134 40075 ft 450 kts 319°
2026-05-06 01:49 41.63362 18.97912 40069 ft 450 kts 319°
2026-05-06 01:49 41.68258 18.92679 40070 ft 451 kts 319°
2026-05-06 01:50 41.73160 18.87429 40075 ft 452 kts 319°
2026-05-06 01:50 41.78068 18.82163 40070 ft 452 kts 319°
2026-05-06 01:51 41.82667 18.77220 40066 ft 452 kts 319°
2026-05-06 01:51 41.87565 18.71945 40069 ft 451 kts 319°
2026-05-06 01:52 41.92194 18.66292 40064 ft 449 kts 309°
2026-05-06 01:52 41.95719 18.59413 40063 ft 448 kts 300°
2026-05-06 01:53 41.98846 18.52174 40059 ft 448 kts 298°
2026-05-06 01:53 42.01905 18.44880 40058 ft 448 kts 298°
2026-05-06 01:54 42.04969 18.37587 40056 ft 448 kts 298°
2026-05-06 01:54 42.08039 18.30306 40056 ft 447 kts 298°
2026-05-06 01:55 42.11112 18.23017 40056 ft 447 kts 298°
2026-05-06 01:55 42.14159 18.15773 40056 ft 447 kts 298°
2026-05-06 01:56 42.17240 18.08428 40050 ft 447 kts 298°
2026-05-06 01:56 42.20277 18.01168 40051 ft 447 kts 298°
2026-05-06 01:57 42.23331 17.93851 40045 ft 448 kts 298°
2026-05-06 01:57 42.26379 17.86528 40042 ft 448 kts 298°
2026-05-06 01:58 42.29427 17.79188 40042 ft 448 kts 298°
2026-05-06 01:58 42.32468 17.71848 40036 ft 448 kts 298°
2026-05-06 01:59 42.35505 17.64499 40037 ft 448 kts 297°
2026-05-06 01:59 42.38537 17.57141 40034 ft 448 kts 297°
2026-05-06 02:00 42.41565 17.49776 40039 ft 448 kts 297°
2026-05-06 02:00 42.44586 17.42410 40034 ft 448 kts 297°
2026-05-06 02:01 42.47604 17.35030 40032 ft 448 kts 297°
2026-05-06 02:01 42.50620 17.27639 40028 ft 448 kts 297°
2026-05-06 02:02 42.53629 17.20245 40030 ft 448 kts 297°
2026-05-06 02:02 42.56403 17.12689 40025 ft 447 kts 292°
2026-05-06 02:03 42.58885 17.04963 40026 ft 447 kts 292°
2026-05-06 02:03 42.61382 16.97235 40024 ft 447 kts 292°
2026-05-06 02:04 42.63926 16.89535 40017 ft 447 kts 292°
2026-05-06 02:04 42.66491 16.81832 40021 ft 447 kts 292°
2026-05-06 02:05 42.69053 16.74126 40019 ft 447 kts 292°
2026-05-06 02:05 42.71608 16.66411 40019 ft 448 kts 292°
2026-05-06 02:06 42.74160 16.58679 40015 ft 448 kts 292°
2026-05-06 02:06 42.76688 16.50995 40017 ft 448 kts 292°
2026-05-06 02:07 42.79230 16.43246 40013 ft 448 kts 292°
2026-05-06 02:07 42.81767 16.35491 40012 ft 448 kts 292°
2026-05-06 02:08 42.84301 16.27730 40010 ft 448 kts 291°
2026-05-06 02:08 42.86822 16.19978 40008 ft 448 kts 291°
2026-05-06 02:09 42.89341 16.12209 40006 ft 448 kts 291°
2026-05-06 02:09 42.91857 16.04428 39999 ft 448 kts 291°
2026-05-06 02:10 42.94367 15.96645 40010 ft 448 kts 291°
2026-05-06 02:10 42.96872 15.88854 40001 ft 448 kts 291°
2026-05-06 02:11 42.99370 15.81061 40002 ft 448 kts 291°
2026-05-06 02:11 43.01865 15.73256 40006 ft 448 kts 291°
2026-05-06 02:12 43.04353 15.65448 40002 ft 448 kts 291°
2026-05-06 02:12 43.06837 15.57632 39998 ft 448 kts 290°
2026-05-06 02:13 43.09314 15.49812 39990 ft 448 kts 290°
2026-05-06 02:13 43.11787 15.41983 39992 ft 448 kts 290°
2026-05-06 02:14 43.14254 15.34149 39990 ft 448 kts 290°
2026-05-06 02:14 43.16702 15.26356 39996 ft 448 kts 290°
2026-05-06 02:15 43.19161 15.18500 39988 ft 449 kts 290°
2026-05-06 02:15 43.21615 15.10639 39988 ft 449 kts 290°
2026-05-06 02:16 43.24068 15.02758 39986 ft 449 kts 290°
2026-05-06 02:16 43.26513 14.94876 39985 ft 449 kts 290°
2026-05-06 02:17 43.28956 14.86981 39982 ft 450 kts 289°
2026-05-06 02:17 43.31241 14.78989 39984 ft 448 kts 283°
2026-05-06 02:18 43.32932 14.70775 39982 ft 447 kts 282°
2026-05-06 02:18 43.34517 14.62519 39980 ft 447 kts 282°
2026-05-06 02:19 43.36080 14.54256 39976 ft 447 kts 282°
2026-05-06 02:19 43.37646 14.45984 39978 ft 447 kts 282°
2026-05-06 02:20 43.39990 14.33588 39974 ft 447 kts 282°
2026-05-06 02:21 43.41548 14.25313 39977 ft 447 kts 282°
2026-05-06 02:21 43.43098 14.17046 39978 ft 447 kts 281°
2026-05-06 02:22 43.44673 14.08760 39974 ft 448 kts 282°
2026-05-06 02:22 43.46439 14.00542 39974 ft 448 kts 283°
2026-05-06 02:23 43.48246 13.92325 39972 ft 448 kts 283°
2026-05-06 02:23 43.50018 13.84100 39978 ft 448 kts 283°
2026-05-06 02:24 43.51772 13.75826 39971 ft 451 kts 283°
2026-05-06 02:24 43.53519 13.67533 39971 ft 451 kts 283°
2026-05-06 02:25 43.55262 13.59231 39972 ft 451 kts 282°
2026-05-06 02:25 43.56133 13.55073 39806 ft 450 kts 282°
2026-05-06 02:25 43.56993 13.50969 39427 ft 443 kts 282°
2026-05-06 02:25 43.57844 13.46900 38884 ft 442 kts 282°
2026-05-06 02:26 43.58694 13.42814 38084 ft 444 kts 282°
2026-05-06 02:26 43.59539 13.38735 37380 ft 443 kts 282°
2026-05-06 02:26 43.60100 13.36026 36920 ft 442 kts 282°
2026-05-06 02:26 43.61224 13.30595 35996 ft 440 kts 282°
2026-05-06 02:27 43.61780 13.27901 35530 ft 439 kts 282°
2026-05-06 02:27 43.62895 13.22494 35043 ft 440 kts 282°
2026-05-06 02:27 43.63450 13.19794 34883 ft 443 kts 282°
2026-05-06 02:27 43.64290 13.15698 34634 ft 443 kts 282°
2026-05-06 02:28 43.65129 13.11607 34429 ft 442 kts 282°
2026-05-06 02:28 43.65963 13.07542 34187 ft 439 kts 281°
2026-05-06 02:28 43.66792 13.03494 33947 ft 437 kts 281°
2026-05-06 02:28 43.67615 12.99462 33665 ft 436 kts 281°
2026-05-06 02:29 43.68429 12.95430 33411 ft 437 kts 280°
2026-05-06 02:29 43.69199 12.91368 33144 ft 438 kts 280°
2026-05-06 02:29 43.69940 12.87280 32868 ft 439 kts 279°
2026-05-06 02:29 43.70674 12.83171 32597 ft 441 kts 279°
2026-05-06 02:30 43.71410 12.79051 32351 ft 443 kts 279°
2026-05-06 02:30 43.72156 12.74905 32110 ft 445 kts 279°
2026-05-06 02:30 43.72907 12.70752 31847 ft 446 kts 279°
2026-05-06 02:30 43.73662 12.66597 31588 ft 446 kts 279°
2026-05-06 02:31 43.74419 12.62441 31333 ft 446 kts 279°
2026-05-06 02:31 43.75173 12.58289 31082 ft 445 kts 279°
2026-05-06 02:31 43.75927 12.54141 30832 ft 444 kts 279°
2026-05-06 02:31 43.76676 12.50001 30592 ft 444 kts 279°
2026-05-06 02:32 43.77422 12.45859 30346 ft 443 kts 279°
2026-05-06 02:32 43.78156 12.41780 30115 ft 443 kts 279°
2026-05-06 02:32 43.78909 12.37590 29843 ft 444 kts 279°
2026-05-06 02:32 43.79654 12.33444 29566 ft 443 kts 279°
2026-05-06 02:33 43.80398 12.29322 29288 ft 442 kts 279°
2026-05-06 02:33 43.80896 12.26588 29108 ft 441 kts 279°
2026-05-06 02:34 43.83356 12.12980 28212 ft 436 kts 279°
2026-05-06 02:34 43.84072 12.08905 27928 ft 434 kts 279°
2026-05-06 02:34 43.84777 12.04847 27680 ft 433 kts 279°
2026-05-06 02:34 43.85483 12.00793 27435 ft 432 kts 279°
2026-05-06 02:35 43.86188 11.96748 27169 ft 432 kts 279°
2026-05-06 02:35 43.86888 11.92738 26735 ft 425 kts 279°
2026-05-06 02:35 43.87608 11.88791 26172 ft 421 kts 282°
2026-05-06 02:35 43.88738 11.85031 25578 ft 426 kts 294°
2026-05-06 02:36 43.90496 11.81701 24932 ft 433 kts 309°
2026-05-06 02:36 43.92886 11.79115 24285 ft 443 kts 325°
2026-05-06 02:36 43.95781 11.77560 23614 ft 452 kts 343°
2026-05-06 02:36 43.98930 11.77200 22858 ft 458 kts 358°
2026-05-06 02:37 44.02090 11.77070 22164 ft 451 kts 351°
2026-05-06 02:37 44.05207 11.76670 21448 ft 448 kts 350°
2026-05-06 02:37 44.08286 11.76214 20750 ft 444 kts 349°
2026-05-06 02:37 44.11348 11.75698 20053 ft 441 kts 348°
2026-05-06 02:38 44.14376 11.75146 19357 ft 438 kts 348°
2026-05-06 02:38 44.17384 11.74573 18661 ft 435 kts 348°
2026-05-06 02:38 44.20353 11.73914 17912 ft 429 kts 343°
2026-05-06 02:38 44.23082 11.72445 17239 ft 413 kts 325°
2026-05-06 02:39 44.25280 11.70013 16656 ft 398 kts 311°
2026-05-06 02:39 44.27189 11.67330 16104 ft 391 kts 309°
2026-05-06 02:39 44.29087 11.64589 15517 ft 385 kts 309°
2026-05-06 02:39 44.30975 11.61965 14892 ft 384 kts 314°
2026-05-06 02:40 44.33071 11.59729 14303 ft 383 kts 321°
2026-05-06 02:40 44.35255 11.57637 13684 ft 380 kts 321°
2026-05-06 02:40 44.37430 11.55576 13023 ft 375 kts 321°
2026-05-06 02:40 44.39577 11.53541 12427 ft 369 kts 321°
2026-05-06 02:41 44.41682 11.51532 11832 ft 364 kts 322°
2026-05-06 02:41 44.43752 11.49552 11441 ft 354 kts 322°
2026-05-06 02:41 44.45736 11.47663 11320 ft 336 kts 322°
2026-05-06 02:41 44.47617 11.45868 11213 ft 320 kts 322°
2026-05-06 02:42 44.49412 11.44151 11099 ft 305 kts 321°
2026-05-06 02:42 44.51120 11.42514 10977 ft 291 kts 321°
2026-05-06 02:42 44.52762 11.40938 10857 ft 283 kts 321°
2026-05-06 02:42 44.54384 11.39375 10564 ft 282 kts 321°
2026-05-06 02:43 44.55997 11.37819 10202 ft 281 kts 321°
2026-05-06 02:43 44.57606 11.36268 9873 ft 280 kts 321°
2026-05-06 02:43 44.59219 11.34712 9665 ft 279 kts 322°
2026-05-06 02:43 44.60804 11.33187 9538 ft 275 kts 322°
2026-05-06 02:44 44.62381 11.31666 9277 ft 274 kts 322°
2026-05-06 02:44 44.63910 11.30093 8977 ft 271 kts 316°
2026-05-06 02:44 44.65044 11.28041 8705 ft 265 kts 296°
2026-05-06 02:44 44.65892 11.25758 8419 ft 263 kts 294°
2026-05-06 02:45 44.66701 11.23461 8167 ft 262 kts 294°
2026-05-06 02:45 44.67513 11.21164 7855 ft 261 kts 294°
2026-05-06 02:45 44.68325 11.18883 7568 ft 261 kts 294°
2026-05-06 02:45 44.69135 11.16614 7286 ft 260 kts 294°
2026-05-06 02:46 44.69944 11.14350 7004 ft 259 kts 294°
2026-05-06 02:46 44.70752 11.12089 6722 ft 258 kts 294°
2026-05-06 02:46 44.71553 11.09849 6437 ft 257 kts 294°
2026-05-06 02:46 44.72374 11.07617 6148 ft 256 kts 295°
2026-05-06 02:47 44.73096 11.05350 5854 ft 253 kts 284°
2026-05-06 02:47 44.73165 11.02927 5614 ft 247 kts 254°
2026-05-06 02:47 44.72400 11.00818 5392 ft 243 kts 226°
2026-05-06 02:47 44.71052 10.99421 5133 ft 241 kts 207°
2026-05-06 02:48 44.69554 10.98372 4883 ft 241 kts 205°
2026-05-06 02:48 44.68037 10.97384 4639 ft 237 kts 200°
2026-05-06 02:48 44.66469 10.97010 4512 ft 224 kts 174°
2026-05-06 02:48 44.65046 10.97731 4373 ft 219 kts 146°
2026-05-06 02:49 44.64049 10.99340 4141 ft 220 kts 121°
2026-05-06 02:49 44.63356 11.01231 3884 ft 221 kts 117°
2026-05-06 02:49 44.62694 11.03167 3621 ft 220 kts 117°
2026-05-06 02:49 44.62020 11.05113 3438 ft 214 kts 117°
2026-05-06 02:50 44.61394 11.06906 3387 ft 201 kts 117°
2026-05-06 02:50 44.60789 11.08637 3314 ft 190 kts 117°
2026-05-06 02:50 44.60291 11.10044 3241 ft 189 kts 117°
2026-05-06 02:50 44.59706 11.11691 3134 ft 181 kts 117°
2026-05-06 02:51 44.59180 11.13180 3094 ft 164 kts 116°
2026-05-06 02:51 44.58697 11.14549 2932 ft 150 kts 117°
2026-05-06 02:51 44.58231 11.15827 2626 ft 144 kts 117°
2026-05-06 02:51 44.57798 11.17030 2522 ft 134 kts 116°
2026-05-06 02:52 44.57372 11.18205 2175 ft 139 kts 117°
2026-05-06 02:52 44.56931 11.19428 1869 ft 137 kts 115°
2026-05-06 02:52 44.56525 11.20568 1874 ft 128 kts 116°
2026-05-06 02:52 44.56107 11.21734 1511 ft 140 kts 115°
2026-05-06 02:53 44.55669 11.22956 1188 ft 137 kts 115°
2026-05-06 02:53 44.55243 11.24134 844 ft 137 kts 114°
2026-05-06 02:53 44.54817 11.25326 555 ft 135 kts 116°
2026-05-06 02:53 44.54410 11.26480 331 ft 128 kts 116°
2026-05-06 02:54 44.54006 11.27586 195 ft 128 kts 118°
2026-05-06 02:54 44.53634 11.28618 130 ft 92 kts 117°
2026-05-06 02:54 44.53453 11.29125 135 ft 38 kts 116°
2026-05-06 02:54 44.53344 11.29425 138 ft 34 kts 117°
2026-05-06 02:55 44.53236 11.29723 137 ft 35 kts 117°
2026-05-06 02:55 44.53128 11.30022 132 ft 30 kts 116°
2026-05-06 02:55 44.53038 11.30272 128 ft 18 kts 116°
2026-05-06 02:55 44.52990 11.30349 133 ft 5 kts 162°
2026-05-06 02:56 44.52955 11.30342 135 ft 8 kts 190°
2026-05-06 02:56 44.52893 11.30297 136 ft 11 kts 223°
2026-05-06 02:56 44.52875 11.30206 137 ft 11 kts 277°
2026-05-06 02:56 44.52904 11.30094 137 ft 10 kts 300°
2026-05-06 02:57 44.52950 11.29970 136 ft 17 kts 297°
2026-05-06 02:57 44.53012 11.29823 137 ft 16 kts 319°
2026-05-06 02:57 44.53113 11.29724 136 ft 19 kts 327°
2026-05-06 02:57 44.53230 11.29614 137 ft 21 kts 321°
2026-05-06 02:58 44.53332 11.29452 137 ft 23 kts 303°
2026-05-06 02:58 44.53409 11.29244 136 ft 26 kts 296°
2026-05-06 02:58 44.53493 11.29009 135 ft 28 kts 297°
2026-05-06 02:58 44.53586 11.28752 132 ft 30 kts 297°
2026-05-06 02:59 44.53682 11.28484 135 ft 31 kts 296°
2026-05-06 02:59 44.53783 11.28204 135 ft 33 kts 296°
2026-05-06 02:59 44.53887 11.27915 130 ft 35 kts 296°
2026-05-06 02:59 44.53958 11.27687 133 ft 9 kts 268°
2026-05-06 03:00 44.53926 11.27602 135 ft 10 kts 222°
2026-05-06 03:00 44.53862 11.27571 136 ft 9 kts 180°
2026-05-06 03:00 44.53807 11.27609 136 ft 10 kts 136°
2026-05-06 03:00 44.53766 11.27703 136 ft 13 kts 118°
2026-05-06 03:01 44.53720 11.27829 137 ft 16 kts 117°
2026-05-06 03:01 44.53666 11.27979 136 ft 17 kts 117°
2026-05-06 03:01 44.53617 11.28115 137 ft 17 kts 116°
2026-05-06 03:01 44.53561 11.28268 137 ft 15 kts 121°
2026-05-06 03:02 44.53532 11.28293 137 ft 4 kts 171°
2026-05-06 03:02 44.53504 11.28309 137 ft 5 kts 143°
2026-05-06 03:02 44.53486 11.28336 137 ft 1 kts 149°
2026-05-06 03:02 44.53474 11.28338 137 ft 3 kts 172°
2026-05-06 03:03 44.53439 11.28327 137 ft 7 kts 204°
2026-05-06 03:03 44.53398 11.28300 137 ft 6 kts 206°
2026-05-06 03:03 44.53389 11.28294 137 ft 0 kts 206°
2026-05-06 03:08 44.58004 11.16458 2575 ft 131 kts 116°
2026-05-06 03:08 44.57616 11.17537 2420 ft 134 kts 116°
2026-05-06 03:09 44.57136 11.18854 1970 ft 142 kts 116°
2026-05-06 03:09 44.56690 11.20106 1842 ft 128 kts 116°
2026-05-06 03:09 44.56225 11.21404 1678 ft 137 kts 116°
2026-05-06 03:09 44.55766 11.22686 1236 ft 139 kts 115°
2026-05-06 03:10 44.55282 11.24027 895 ft 137 kts 114°
2026-05-06 03:10 44.54817 11.25326 548 ft 135 kts 116°
2026-05-06 03:10 44.54370 11.26592 317 ft 127 kts 116°
2026-05-06 03:10 44.53936 11.27785 161 ft 128 kts 116°
2026-05-06 03:11 44.53560 11.28824 126 ft 70 kts 116°
2026-05-06 03:11 44.53415 11.29231 136 ft 35 kts 116°
2026-05-06 03:11 44.53780 11.28218 136 ft 122 kts 117°
2026-05-06 03:11 44.53889 11.27917 148 ft 119 kts 116°
2026-05-06 03:12 44.55005 11.24795 683 ft 137 kts 114°
2026-05-06 03:12 44.54477 11.26287 367 ft 130 kts 117°
2026-05-06 03:12 44.53962 11.27711 171 ft 128 kts 117°
2026-05-06 03:13 44.53562 11.28819 132 ft 70 kts 116°
2026-05-06 03:13 44.53402 11.29266 136 ft 35 kts 116°
2026-05-06 03:13 44.54492 11.26246 369 ft 130 kts 117°
2026-05-06 03:13 44.54027 11.27527 209 ft 128 kts 118°
2026-05-06 03:14 44.53592 11.28735 131 ft 80 kts 116°
2026-05-06 03:14 44.53467 11.29084 134 ft 40 kts 116°
2026-05-06 03:14 44.53295 11.29559 137 ft 34 kts 117°
2026-05-06 03:14 44.57790 11.17053 2518 ft 134 kts 116°
2026-05-06 03:15 44.53638 11.28606 135 ft 93 kts 117°
2026-05-06 03:15 44.53434 11.29178 135 ft 35 kts 116°
2026-05-06 03:15 44.53307 11.29526 137 ft 34 kts 117°